Wind_Speed
19 18 18 18 18 18 18 19 20 22 25 26 25 25 25 26 24 23 21 19 19 18 18 17 16 16 16 15 16 16 16 16 17 16 15 13 13 11 11 10 9 8 7
18 17 16 16 16 16 17 18 18 19 21 24 23 23 24 25 24 24 23 20 20 19 18 18 17 17 17 16 16 17 16 17 17 16 15 14 14 13 12 11 10 9 8
17 16 14 14 14 14 14 16 17 18 19 21 22 22 23 25 24 24 24 22 20 19 19 18 17 17 17 17 16 17 17 17 17 17 16 15 15 14 13 12 11 10 9
16 15 13 12 11 12 12 14 15 15 18 20 21 22 23 25 24 24 24 23 21 20 19 19 18 17 17 17 17 17 17 18 17 17 17 16 16 15 14 14 12 11 10
16 14 12 11 10 10 10 11 13 14 16 19 20 21 23 24 25 25 25 23 22 21 20 19 19 18 17 17 17 17 17 18 17 17 17 17 16 16 15 14 14 13 12
16 14 13 11 9 8 9 9 11 13 14 17 19 20 22 24 25 25 25 24 23 22 21 20 20 18 17 17 17 18 17 17 17 18 17 17 16 16 16 15 15 14 13
16 15 13 11 9 7 7 7 9 11 13 15 17 19 20 23 24 25 25 24 24 24 22 21 21 19 18 18 18 18 18 18 17 18 17 17 17 16 16 16 16 15 15
16 15 13 11 8 6 5 4 6 9 11 13 14 16 18 20 22 23 24 24 25 25 24 22 21 20 19 18 18 19 18 17 18 18 17 17 17 17 17 17 17 17 16
16 15 13 11 8 6 4 3 3 6 9 12 13 14 15 17 19 22 22 23 23 25 25 23 23 22 21 20 19 20 19 19 18 19 19 18 18 18 17 18 19 18 18
15 14 13 11 9 6 4 3 1 4 7 10 12 12 14 15 16 19 21 22 22 23 24 25 25 24 23 22 21 21 21 21 20 20 20 20 19 19 18 18 19 19 19
15 14 13 12 10 7 6 4 2 2 5 7 9 11 13 15 15 17 18 19 21 22 23 25 25 25 25 24 24 23 23 23 22 22 21 21 21 21 20 20 19 20 20
14 13 13 12 11 8 6 5 3 1 2 4 6 9 12 14 15 16 17 18 20 21 22 23 25 25 25 24 25 25 25 25 24 24 23 23 23 23 22 22 22 22 22
13 13 12 12 11 9 7 5 4 3 1 2 4 6 9 11 13 15 17 18 20 21 21 22 23 24 25 25 26 26 26 25 26 25 25 25 25 25 25 25 24 25 25
13 12 12 11 10 9 8 6 5 4 2 0 2 4 7 10 12 14 16 17 18 20 21 22 23 23 25 25 27 27 27 27 28 28 28 28 27 27 28 28 27 27 27
12 12 11 11 10 9 8 7 6 5 4 3 1 2 4 7 10 12 15 16 17 18 20 21 22 23 24 25 26 27 28 30 30 31 31 31 31 30 30 30 30 30 30
12 11 11 10 10 9 8 7 6 6 5 4 3 2 3 4 7 9 11 13 14 16 18 20 21 23 24 25 26 27 28 30 31 32 32 33 33 34 33 33 33 32 33
12 11 10 10 9 8 8 7 6 6 5 4 3 3 3 3 5 7 8 10 12 14 16 18 20 21 23 24 26 27 28 30 31 32 33 34 34 35 35 35 35 35 35
12 11 10 10 9 8 7 7 6 6 5 5 4 3 3 3 4 5 7 9 10 12 14 16 18 19 21 22 24 26 27 29 30 31 33 34 34 35 36 36 37 37 38
12 11 10 10 9 9 8 7 6 6 6 5 5 4 4 4 4 4 6 8 9 11 12 14 16 17 19 21 22 23 25 26 28 30 32 33 33 35 36 37 37 38 39
12 11 11 10 9 9 8 8 7 6 6 6 6 5 5 5 5 5 6 8 9 11 12 14 15 17 18 20 21 23 23 24 26 28 30 31 33 34 36 37 38 39 39
12 12 12 11 10 9 9 8 8 8 7 7 7 6 6 7 7 7 8 9 10 11 12 13 15 17 18 20 21 22 24 25 26 26 28 30 31 33 34 36 37 38 39
12 12 12 12 11 10 10 9 9 9 8 8 8 8 8 8 8 9 9 10 11 12 13 14 15 17 18 19 21 22 23 24 26 26 27 29 30 31 33 34 36 37 38
12 12 12 12 12 11 10 10 10 9 9 9 9 9 9 9 10 10 11 11 12 13 14 15 16 17 18 19 20 21 22 23 25 25 27 28 29 29 31 32 34 36 37
12 12 12 12 12 11 11 10 10 10 10 10 10 11 11 11 11 12 12 13 14 14 15 16 17 18 19 19 20 21 22 23 25 25 26 27 29 29 30 30 31 32 34
12 12 12 12 12 12 12 11 11 11 11 11 12 12 12 13 13 14 14 14 15 16 17 18 18 19 20 20 21 22 23 24 25 26 27 27 28 29 30 31 31 32 33
12 12 12 12 12 12 12 12 12 12 13 13 13 14 14 15 15 16 16 16 17 17 18 19 19 20 21 21 22 23 24 25 26 27 27 28 29 29 30 31 32 33 33
Wind_Direction
309 300 289 281 275 268 260 254 246 241 238 234 232 229 226 226 226 222 222 221 219 219 218 216 213 212 213 215 214 212 211 208 204 202 201 201 198 199 200 200 198 198 199
316 308 295 284 276 269 263 254 245 239 236 233 229 227 223 223 222 220 218 220 220 219 217 215 214 214 215 218 216 213 212 209 205 203 204 203 202 203 203 204 205 206 206
324 315 304 290 279 272 265 255 247 238 231 231 230 224 219 218 217 216 216 219 219 218 216 215 215 214 217 216 215 211 211 209 207 207 206 207 206 208 208 208 209 210 213
330 323 314 301 286 275 266 255 246 238 230 229 228 222 218 216 215 213 215 215 215 217 216 216 214 214 215 214 212 210 209 209 211 210 208 209 209 211 212 213 212 215 218
338 332 324 312 296 283 271 256 245 235 230 226 223 220 217 215 215 211 213 212 213 214 214 215 214 214 213 211 209 210 209 210 213 212 210 211 211 214 214 214 216 218 222
344 338 331 322 309 292 279 261 245 233 230 225 222 220 217 216 215 212 212 212 213 215 214 215 215 212 211 210 210 210 210 211 212 213 213 212 214 214 214 217 219 220 222
348 346 339 332 323 305 291 272 251 233 225 221 221 221 218 216 215 215 214 213 213 216 217 216 214 214 213 214 213 211 212 214 214 215 216 216 216 218 219 219 221 223 224
352 352 348 342 335 322 305 277 252 231 222 219 217 220 223 219 216 215 216 215 214 215 216 216 216 214 214 216 215 215 215 216 217 218 219 220 221 223 223 222 223 226 226
355 357 357 353 347 339 326 300 253 226 216 215 217 220 219 218 218 216 217 218 218 218 217 217 219 218 219 218 219 220 219 219 220 222 224 225 225 227 227 227 226 228 228
358 1 4 5 1 355 351 342 275 211 208 213 218 217 215 214 218 218 216 219 221 221 218 218 221 222 224 221 221 223 223 224 225 226 228 228 229 230 230 230 229 229 229
2 4 8 12 13 11 7 3 17 174 193 206 215 217 217 217 219 217 218 221 222 221 220 220 223 224 224 223 224 226 228 229 229 231 232 232 232 233 233 232 231 231 232
3 7 10 14 18 19 21 24 39 84 181 206 220 221 221 222 223 221 221 222 222 221 221 224 225 226 224 224 226 229 231 232 233 234 234 233 234 235 236 236 236 235 236
3 8 12 15 20 22 25 33 40 47 109 205 221 223 225 225 227 225 225 223 224 223 224 225 226 226 228 228 229 232 234 235 235 236 235 236 237 238 238 239 240 240 240
3 7 12 16 21 25 27 31 32 37 48 155 234 233 231 229 227 226 225 224 224 224 226 227 228 228 229 230 232 234 236 237 238 239 240 240 241 241 240 241 242 243 243
2 6 10 15 19 22 25 28 30 28 23 15 336 258 239 232 229 227 225 226 227 227 226 227 230 231 232 233 236 237 239 240 241 242 243 243 243 244 243 243 244 245 245
357 1 6 9 12 16 20 22 23 21 17 6 345 317 272 246 238 232 230 230 231 231 229 229 232 234 236 238 240 241 242 242 243 244 244 244 246 245 246 246 246 246 247
354 356 359 3 6 8 10 11 12 15 13 5 347 323 295 269 245 238 235 234 235 235 233 234 237 240 241 243 243 245 246 245 245 246 246 247 247 247 248 248 249 248 248
353 355 356 358 360 2 2 2 3 4 3 1 354 340 313 290 264 250 244 242 241 241 239 240 242 245 246 247 248 250 250 249 249 249 249 249 249 249 250 251 250 250 251
352 353 353 355 356 357 357 356 354 351 349 346 342 336 328 313 292 267 255 250 248 248 248 248 248 249 250 251 252 254 254 253 253 251 250 250 250 251 252 252 252 252 253
352 352 351 350 350 351 351 349 345 340 336 334 330 325 321 316 305 290 273 264 259 256 257 258 257 257 258 257 257 258 258 258 257 255 253 252 252 253 254 254 255 255 255
349 351 351 349 347 345 345 345 342 336 329 324 322 317 313 308 300 292 282 275 270 268 266 265 264 264 265 264 263 263 262 262 262 260 258 257 256 256 256 256 256 256 257
343 346 348 348 347 346 344 344 342 339 333 326 320 315 309 303 297 292 287 283 280 277 275 273 271 270 269 268 266 266 266 265 265 265 264 263 262 260 260 259 258 257 258
334 338 341 343 344 343 342 341 339 338 335 331 325 318 312 307 301 296 292 288 285 283 281 279 278 277 274 271 269 268 268 268 268 267 267 266 264 264 264 263 262 260 260
323 329 333 336 339 340 339 339 337 334 333 330 326 321 315 310 307 302 298 295 291 289 287 285 283 281 278 276 274 273 272 272 271 269 268 268 267 266 266 265 265 265 262
312 318 323 328 331 333 334 334 334 332 330 327 325 321 317 313 308 305 302 299 296 294 292 290 287 285 283 281 279 278 277 276 276 274 272 271 270 269 269 268 267 267 267
300 306 312 317 322 324 326 328 327 326 324 323 321 319 316 313 309 307 304 301 299 296 293 292 290 288 286 283 282 280 279 278 277 277 277 275 273 271 271 271 270 269 270
Height
5800 5798 5796 5796 5796 5796 5797 5799 5801 5803 5806 5809 5813 5817 5822 5826 5830 5834 5837 5840 5843 5845 5847 5850 5852 5855 5858 5860 5863 5865 5868 5871 5873 5876 5879 5881 5883 5886 5888 5890 5892 5894 5895
5796 5794 5792 5791 5791 5792 5793 5794 5796 5799 5801 5805 5808 5812 5816 5821 5826 5830 5833 5837 5840 5843 5845 5848 5850 5853 5856 5858 5861 5863 5866 5869 5872 5875 5877 5880 5882 5885 5887 5889 5892 5893 5895
5793 5790 5789 5788 5787 5788 5788 5790 5792 5794 5797 5800 5804 5808 5812 5817 5821 5825 5830 5833 5837 5840 5843 5845 5848 5850 5853 5856 5858 5861 5864 5867 5870 5873 5876 5878 5881 5883 5886 5888 5890 5892 5894
5791 5788 5786 5785 5784 5784 5785 5786 5788 5790 5793 5796 5800 5804 5809 5813 5816 5821 5825 5830 5833 5837 5840 5843 5846 5848 5851 5853 5856 5859 5862 5865 5868 5871 5874 5876 5879 5881 5884 5887 5889 5891 5893
5790 5787 5784 5783 5782 5781 5782 5783 5785 5787 5790 5793 5796 5800 5805 5809 5813 5817 5822 5827 5831 5834 5837 5840 5843 5846 5849 5851 5854 5857 5860 5863 5866 5869 5872 5874 5877 5879 5882 5884 5887 5889 5891
5789 5786 5783 5781 5780 5779 5779 5780 5782 5784 5786 5790 5793 5797 5801 5805 5809 5814 5819 5823 5827 5830 5834 5837 5841 5844 5847 5850 5852 5855 5858 5861 5864 5867 5869 5872 5875 5877 5880 5882 5885 5887 5889
5788 5785 5782 5780 5778 5778 5778 5778 5779 5781 5784 5787 5790 5794 5798 5802 5806 5811 5815 5820 5823 5827 5831 5834 5838 5841 5844 5847 5850 5853 5856 5859 5862 5864 5867 5870 5873 5875 5877 5880 5883 5885 5887
5788 5785 5782 5780 5778 5776 5776 5776 5777 5779 5781 5785 5788 5792 5795 5800 5803 5807 5812 5816 5819 5823 5827 5831 5835 5839 5842 5845 5848 5851 5854 5857 5860 5862 5865 5868 5870 5873 5875 5877 5880 5882 5885
5789 5785 5782 5779 5777 5776 5775 5775 5776 5777 5780 5783 5786 5790 5793 5797 5800 5804 5808 5812 5816 5819 5823 5828 5832 5835 5839 5842 5845 5848 5851 5854 5857 5860 5862 5865 5867 5870 5872 5875 5877 5879 5882
5790 5786 5783 5780 5778 5777 5776 5775 5776 5777 5779 5781 5784 5787 5791 5794 5798 5801 5805 5809 5812 5816 5820 5824 5827 5831 5835 5838 5842 5845 5848 5851 5854 5856 5859 5862 5864 5867 5869 5871 5874 5876 5878
5791 5787 5784 5781 5779 5778 5777 5776 5776 5777 5778 5781 5783 5786 5788 5792 5795 5798 5802 5805 5809 5813 5817 5821 5824 5827 5830 5834 5838 5841 5844 5847 5850 5853 5855 5858 5860 5863 5866 5868 5870 5872 5875
5792 5788 5785 5783 5781 5779 5778 5777 5777 5777 5778 5780 5782 5784 5786 5789 5792 5795 5798 5802 5805 5809 5812 5816 5819 5823 5825 5829 5833 5836 5839 5842 5845 5848 5851 5853 5856 5859 5861 5864 5866 5868 5870
5793 5790 5787 5784 5782 5781 5779 5779 5778 5778 5779 5780 5781 5783 5785 5787 5789 5792 5795 5798 5802 5805 5808 5812 5815 5819 5822 5825 5828 5831 5834 5837 5840 5843 5846 5848 5851 5854 5856 5859 5861 5863 5865
5794 5791 5788 5786 5784 5782 5781 5780 5780 5780 5780 5780 5781 5782 5784 5785 5787 5789 5792 5795 5798 5801 5804 5807 5811 5814 5817 5821 5823 5826 5829 5832 5834 5837 5840 5843 5845 5848 5850 5853 5855 5858 5860
5795 5792 5790 5787 5786 5784 5783 5782 5781 5780 5780 5780 5781 5781 5782 5783 5785 5786 5789 5791 5794 5797 5800 5803 5806 5809 5812 5815 5817 5820 5823 5825 5828 5831 5834 5836 5839 5841 5844 5846 5849 5851 5853
5795 5793 5791 5789 5787 5785 5784 5783 5782 5781 5781 5781 5781 5781 5781 5782 5783 5784 5786 5788 5790 5793 5796 5799 5801 5804 5807 5809 5811 5814 5816 5818 5821 5823 5826 5829 5831 5834 5836 5839 5841 5844 5846
5796 5793 5791 5789 5788 5786 5785 5784 5783 5782 5781 5781 5781 5780 5780 5780 5781 5782 5783 5785 5788 5790 5792 5795 5797 5799 5801 5803 5805 5807 5809 5811 5813 5816 5818 5820 5823 5825 5828 5830 5833 5835 5838
5796 5794 5792 5790 5788 5787 5785 5784 5783 5782 5782 5781 5780 5780 5780 5779 5780 5780 5782 5783 5785 5787 5789 5790 5793 5794 5796 5797 5799 5801 5802 5804 5806 5808 5810 5812 5814 5816 5819 5821 5824 5826 5828
5796 5793 5792 5790 5788 5787 5785 5784 5783 5782 5781 5781 5780 5780 5779 5779 5779 5779 5780 5781 5782 5784 5785 5787 5788 5789 5791 5792 5793 5794 5795 5797 5798 5800 5801 5803 5805 5807 5809 5811 5814 5816 5818
5795 5793 5791 5790 5788 5787 5785 5784 5783 5782 5781 5780 5779 5779 5778 5778 5777 5777 5778 5779 5780 5781 5782 5783 5784 5785 5786 5786 5787 5788 5789 5790 5791 5793 5794 5795 5797 5798 5800 5802 5804 5805 5807
5795 5793 5791 5789 5787 5786 5784 5783 5782 5781 5780 5779 5778 5778 5777 5776 5776 5776 5776 5777 5777 5778 5778 5779 5780 5780 5780 5781 5782 5782 5783 5783 5784 5785 5786 5787 5788 5789 5790 5791 5793 5794 5796
5794 5792 5790 5788 5786 5785 5783 5782 5780 5779 5778 5778 5777 5776 5776 5775 5775 5774 5774 5774 5774 5774 5775 5775 5775 5775 5775 5775 5775 5776 5776 5777 5777 5778 5778 5778 5779 5780 5780 5781 5782 5783 5785
5793 5791 5789 5787 5785 5784 5782 5780 5779 5778 5777 5776 5775 5775 5774 5773 5772 5772 5771 5771 5771 5770 5770 5770 5770 5769 5769 5769 5769 5769 5769 5769 5770 5770 5770 5769 5770 5771 5771 5771 5772 5773 5774
5791 5789 5788 5786 5784 5782 5781 5779 5778 5776 5775 5774 5773 5772 5772 5771 5770 5769 5769 5768 5767 5766 5766 5765 5765 5764 5763 5763 5763 5763 5762 5762 5762 5762 5762 5762 5761 5762 5762 5762 5762 5763 5763
5789 5787 5786 5784 5782 5781 5779 5777 5776 5775 5773 5772 5771 5770 5769 5768 5767 5766 5765 5764 5763 5762 5761 5760 5759 5758 5758 5757 5757 5756 5756 5755 5755 5754 5754 5754 5753 5753 5753 5753 5753 5753 5753
5785 5784 5783 5782 5780 5779 5777 5775 5774 5772 5771 5770 5768 5767 5765 5764 5763 5761 5760 5759 5758 5757 5756 5755 5754 5753 5752 5751 5750 5750 5749 5748 5747 5746 5745 5745 5745 5745 5745 5744 5744 5744 5743